GW4714 Weather Reports


time (UTC)temp
C
wind
direction
speed
KPH
gust
KPH
rain 1hr
cm
rain 24hr
cm
rain mn
cm
humidity
%
barometer
mb
20260504183101 23 0 0.0 4.8 0.00 0.00 0.00 37 1015.3
20260504181558 23 176 1.6 8.0 0.00 0.00 0.00 36 1015.6
20260504180132 23 0 0.0 8.0 0.00 0.00 0.00 37 1015.6
20260504174554 23 0 1.6 8.0 0.00 0.00 0.00 39 1015.7
20260504173058 23 0 0.0 12.9 0.00 0.00 0.00 38 1015.8
20260504171555 23 0 0.0 4.8 0.00 0.00 0.00 39 1015.8
20260504130104 13 0 0.0 0.0 0.00 0.00 0.00 62 1017.1
20260504120110 7 0 0.0 0.0 0.00 0.00 0.00 81 1017.1
20260504100115 5 0 0.0 0.0 0.00 0.00 0.00 86 1016.7
20260504081556 6 0 0.0 0.0 0.00 0.00 0.00 85 1016.5
20260504060104 7 0 0.0 0.0 0.00 0.00 0.00 80 1017.0
20260504050105 8 0 0.0 0.0 0.00 0.00 0.00 74 1017.1
20260504044557 8 0 0.0 0.0 0.00 0.00 0.00 77 1017.1
20260504043104 8 0 0.0 0.0 0.00 0.00 0.00 75 1017.1
20260504041558 10 0 0.0 0.0 0.00 0.00 0.00 71 1016.9
20260504040104 10 0 0.0 0.0 0.00 0.00 0.00 70 1016.7
20260504034618 10 0 0.0 0.0 0.00 0.00 0.00 69 1016.7
20260504033104 10 0 0.0 0.0 0.00 0.00 0.00 68 1016.8
20260504031602 10 0 0.0 0.0 0.00 0.00 0.00 66 1017.0
20260504030058 10 0 0.0 0.0 0.00 0.00 0.00 66 1017.1
20260504024559 11 0 0.0 0.0 0.00 0.00 0.00 66 1016.8
20260504023057 11 0 0.0 0.0 0.00 0.00 0.00 64 1017.0
20260504021600 12 0 0.0 0.0 0.00 0.00 0.00 62 1016.7
20260504020112 12 0 0.0 0.0 0.00 0.00 0.00 60 1016.6
20260504014600 13 0 0.0 0.0 0.00 0.00 0.00 57 1016.4
20260504013105 14 0 0.0 0.0 0.00 0.00 0.00 50 1016.0
20260504011559 14 0 0.0 0.0 0.00 0.00 0.00 48 1016.0
20260504010055 15 0 0.0 0.0 0.00 0.00 0.00 48 1015.7
20260504004559 15 0 0.0 0.0 0.00 0.00 0.00 47 1015.8
20260504003058 16 0 0.0 0.0 0.00 0.00 0.00 45 1015.7
20260504001601 17 0 0.0 0.0 0.00 0.00 0.00 42 1015.5
20260504000058 18 0 0.0 0.0 0.00 0.00 0.00 39 1015.5
20260503234555 20 0 0.0 0.0 0.00 0.00 0.00 36 1015.5
20260503233058 21 0 0.0 1.6 0.00 0.00 0.00 33 1015.2
20260503231601 21 0 0.0 1.6 0.00 0.00 0.00 32 1015.3
20260503230113 20 0 0.0 1.6 0.00 0.00 0.00 30 1015.3
20260503224604 20 0 0.0 8.0 0.00 0.00 0.00 30 1015.3
20260503223059 20 263 0.0 8.0 0.00 0.00 0.00 28 1015.5
20260503221556 20 0 0.0 6.4 0.00 0.00 0.00 28 1015.5
20260503220101 20 273 0.0 9.7 0.00 0.00 0.00 28 1015.6
20260503214557 20 0 0.0 12.9 0.00 0.00 0.00 28 1015.7
20260503213103 20 0 0.0 9.7 0.00 0.00 0.00 29 1015.9
20260503211612 20 0 0.0 11.3 0.00 0.00 0.00 29 1016.0
20260503210057 20 215 1.6 6.4 0.00 0.00 0.00 29 1016.2
20260503204557 20 0 0.0 14.5 0.00 0.00 0.00 28 1016.4
20260503203057 19 0 1.6 12.9 0.00 0.00 0.00 30 1016.4
20260503201557 19 0 1.6 9.7 0.00 0.00 0.00 30 1016.6
20260503200113 18 279 0.0 11.3 0.00 0.00 0.00 31 1017.2
20260503194604 18 0 3.2 11.3 0.00 0.00 0.00 31 1017.1
20260503193104 18 144 0.0 12.9 0.00 0.00 0.00 33 1017.5
20260503191606 19 206 1.6 14.5 0.00 0.00 0.00 30 1017.5
20260503190056 19 0 0.0 4.8 0.00 0.00 0.00 31 1017.7
20260503184613 17 0 0.0 12.9 0.00 0.00 0.00 30 1017.8